Location: Newark
(52.2352°N, 0.6006°W)
Time: 14:30:45
(UTC+00:00)

N. Korean satellite - Visible Passes

Search period start: 28 January 2020 00:00
Search period end: 07 February 2020 00:00
Orbit: 454 x 507 km, 97.2° (Epoch: 28 January)

Date Brightness Start Highest point End Pass type
(mag) Time Alt. Az. Time Alt. Az. Time Alt. Az.
28 Jan 6.7 05:59:50 10° NNE 06:03:26 78° ESE 06:07:04 10° S visible
28 Jan 10.1 18:16:49 10° WSW 18:17:53 11° W 18:18:56 10° WNW visible
29 Jan 8.0 05:34:28 10° NNE 05:37:53 40° E 05:41:19 10° S visible
29 Jan 7.9 07:08:20 10° NNW 07:11:04 21° WNW 07:13:49 10° WSW visible
29 Jan 9.5 17:49:29 10° SW 17:52:06 20° W 17:54:46 10° NW visible
30 Jan 9.2 05:09:20 10° NE 05:12:14 22° E 05:15:08 10° SE visible
30 Jan 7.1 06:42:24 10° N 06:45:43 36° WNW 06:49:05 10° SW visible
30 Jan 8.3 17:23:13 10° SSW 17:26:26 37° W 17:29:42 10° NNW visible
31 Jan 10.0 04:44:51 10° ENE 04:46:30 13° E 04:48:08 10° ESE visible
31 Jan 6.5 06:16:42 10° N 06:20:18 68° WNW 06:23:56 10° SSW visible
01 Feb 7.1 05:51:11 10° NNE 05:54:47 63° E 05:58:25 10° S visible
01 Feb 9.9 18:07:16 10° WSW 18:09:07 14° W 18:10:58 10° WNW visible
02 Feb 8.4 05:25:52 10° NNE 05:29:11 33° E 05:32:33 10° SSE visible
02 Feb 7.6 06:59:28 10° N 07:02:28 25° WNW 07:05:31 10° WSW visible
02 Feb 9.2 17:40:28 10° SSW 17:43:22 25° W 17:46:18 10° NW visible
03 Feb 9.5 05:00:52 10° NE 05:03:31 19° E 05:06:09 10° SE visible
03 Feb 6.9 06:33:37 10° N 06:37:06 44° WNW 06:40:36 10° SW visible
04 Feb 10.2 04:37:03 10° ENE 04:37:44 10° E 04:38:25 10° E visible
04 Feb 6.5 06:07:59 10° NNE 06:11:38 84° WNW 06:15:20 10° SSW visible
05 Feb 7.5 05:42:31 10° NNE 05:46:06 50° E 05:49:42 10° S visible
05 Feb 9.8 17:58:00 10° SW 18:00:19 17° W 18:02:41 10° NW visible
06 Feb 8.8 05:17:17 10° NE 05:20:28 27° E 05:23:41 10° SSE visible
06 Feb 7.4 06:50:38 10° N 06:53:52 30° WNW 06:57:07 10° SW visible
06 Feb 8.8 17:31:30 10° SSW 17:34:36 30° W 17:37:47 10° NNW visible
